Cleveland, OH

2:43 AM EDT on September 27, 2016 (GMT -0400)
Burke Lakefront

Weather History for KBKL - March, 2012

Change the Weather History Date:

Thursday, March 22, 2012

  Actual Average Record
Temperature  
Mean Temperature 64 °F -  
Max Temperature 78 °F 44 °F 78 °F (2012)
Min Temperature 54 °F 31 °F 17 °F (2002)
Growing Degree Days 14 (Base 50)    
Moisture  
Dew Point 53 °F    
Average Humidity 68    
Maximum Humidity 80    
Minimum Humidity 53    
Precipitation  
Precipitation 0.00 in - - ()
Sea Level Pressure  
Sea Level Pressure 30.12 in    
Wind  
Wind Speed 10 mph (ESE)    
Max Wind Speed 14 mph    
Max Gust Speed 20 mph    
Visibility 10 miles    
Events      
Averages and records for this station are not official NWS values.
T = Trace of Precipitation, MM = Missing Value Source: NWS Daily Summary

Daily Weather History Graph

Daily Weather History Graph

Search for Another Location

Airport or City:

Trip Planner

Search our weather history database for the weather conditions in past years. The results will help you decide how hot, cold, wet, or windy it might be!

Date:

Astronomy

Mar. 22, 2012 Rise Set
Actual Time 7:25 AM EDT 7:41 PM EDT
Civil Twilight 6:58 AM EDT 8:09 PM EDT
Nautical Twilight 6:25 AM EDT 8:41 PM EDT
Astronomical Twilight 5:52 AM EDT 9:15 PM EDT
Moon 7:03 AM EDT (3/22) 8:06 PM EDT (3/22)
Length of Visible Light 13h 11m
Length of Day
12h 15m
New Moon, 0% of the Moon is Illuminated
Mar 22
New Moon
Mar 30
First Quarter
Apr 6
Full
Apr 13
Last Quarter
Apr 21
New

Hourly Weather History & Observations

Time (EDT) Temp. Dew Point Humidity Pressure Visibility Wind Dir Wind Speed Gust Speed Precip Events Conditions
12:53 AM 69.1 °F 54.0 °F 58% 30.13 in 10.0 mi SSE 10.4 mph 19.6 mph N/A   Clear
1:53 AM 68.0 °F 54.0 °F 61% 30.13 in 10.0 mi SSE 11.5 mph - N/A   Clear
2:53 AM 66.9 °F 54.0 °F 63% 30.13 in 10.0 mi SSE 12.7 mph - N/A   Clear
3:53 AM 64.9 °F 54.0 °F 68% 30.12 in 10.0 mi SSE 11.5 mph - N/A   Clear
4:53 AM 64.0 °F 54.0 °F 70% 30.12 in 10.0 mi SSE 12.7 mph - N/A   Clear
5:53 AM 63.0 °F 54.0 °F 72% 30.14 in 10.0 mi SSE 12.7 mph - N/A   Clear
6:53 AM 62.1 °F 54.0 °F 75% 30.14 in 10.0 mi SSE 13.8 mph - N/A   Clear
7:53 AM 62.1 °F 54.0 °F 75% 30.15 in 7.0 mi SSE 12.7 mph - N/A   Clear
8:53 AM 64.0 °F 54.0 °F 70% 30.15 in 6.0 mi SSE 11.5 mph - N/A   Haze
9:53 AM 69.1 °F 55.0 °F 61% 30.14 in 8.0 mi SSE 12.7 mph - N/A   Clear
10:53 AM 75.0 °F 57.0 °F 53% 30.14 in 9.0 mi Variable 4.6 mph - N/A   Clear
11:53 AM 66.9 °F 55.0 °F 66% 30.14 in 9.0 mi North 5.8 mph - N/A   Clear
12:53 PM 66.0 °F 55.9 °F 70% 30.14 in 8.0 mi Variable 6.9 mph - N/A   Clear
1:53 PM 71.1 °F 57.0 °F 61% 30.12 in 10.0 mi NE 5.8 mph - N/A   Clear
2:53 PM 69.1 °F 55.9 °F 63% 30.11 in 10.0 mi NNE 6.9 mph - N/A   Clear
3:53 PM 66.9 °F 55.0 °F 66% 30.10 in 10.0 mi NE 8.1 mph - N/A   Clear
4:53 PM 66.0 °F 54.0 °F 65% 30.09 in 10.0 mi NE 6.9 mph - N/A   Clear
5:53 PM 63.0 °F 52.0 °F 67% 30.08 in 10.0 mi NE 9.2 mph - N/A   Clear
6:53 PM 61.0 °F 51.1 °F 70% 30.08 in 10.0 mi NE 6.9 mph - N/A   Clear
7:53 PM 59.0 °F 50.0 °F 72% 30.08 in 10.0 mi NE 6.9 mph - N/A   Clear
8:53 PM 57.0 °F 48.9 °F 74% 30.09 in 10.0 mi NE 6.9 mph - N/A   Clear
9:53 PM 54.0 °F 48.0 °F 80% 30.10 in 10.0 mi Calm Calm - N/A   Clear
10:53 PM 54.0 °F 48.0 °F 80% 30.09 in 10.0 mi Calm Calm - N/A   Clear
11:53 PM 55.0 °F 48.9 °F 80% 30.09 in 10.0 mi Calm Calm - N/A   Clear